Location: Lobos
(35.3000°S, 59.0940°W)
Time: 01:32:49
(UTC-03:00)

NOAA 18 - Visible Passes

Search period start: 26 November 2020 00:00
Search period end: 06 December 2020 00:00
Orbit: 840 x 861 km, 99.0° (Epoch: 25 November)

Date Brightness Start Highest point End Pass type
(mag) Time Alt. Az. Time Alt. Az. Time Alt. Az.
26 Nov 7.9 00:37:02 10° SW 00:38:00 10° WSW 00:38:57 10° WSW visible
26 Nov 5.1 22:40:46 10° SSE 22:46:21 75° E 22:46:21 75° E visible
27 Nov 7.6 00:23:38 10° SSW 00:26:20 14° WSW 00:28:22 12° W visible
27 Nov 5.3 22:28:59 10° SSE 22:34:25 57° E 22:34:25 57° E visible
28 Nov 7.4 00:11:03 10° SSW 00:14:39 18° WSW 00:16:25 15° W visible
28 Nov 5.6 22:17:18 10° SSE 22:22:28 44° E 22:22:28 44° E visible
28 Nov 7.1 23:58:42 10° SSW 00:02:57 23° WSW 00:04:28 20° W visible
29 Nov 6.0 22:05:40 10° SSE 22:10:31 34° E 22:10:31 34° E visible
29 Nov 6.8 23:46:29 10° S 23:51:13 29° WSW 23:52:32 26° W visible
30 Nov 6.3 21:54:09 10° SE 21:58:35 26° E 21:58:35 26° E visible
30 Nov 6.4 23:34:22 10° S 23:39:28 36° WSW 23:40:35 33° W visible
01 Dec 6.6 21:42:47 10° SE 21:46:38 20° E 21:46:38 20° E visible
01 Dec 6.0 23:22:21 10° S 23:27:42 46° WSW 23:28:37 42° W visible
02 Dec 6.9 21:31:39 10° ESE 21:34:40 15° E 21:34:40 15° E visible
02 Dec 5.6 23:10:22 10° S 23:15:54 60° WSW 23:16:41 54° WNW visible
03 Dec 7.1 21:21:08 10° ESE 21:22:42 11° E 21:22:42 11° E visible
03 Dec 5.2 22:58:27 10° S 23:04:05 77° WSW 23:04:43 68° NW visible
04 Dec 5.1 22:46:36 10° SSE 22:52:15 83° ENE 22:52:46 74° N visible
05 Dec 7.7 00:29:58 10° SW 00:32:06 12° WSW 00:34:14 10° W visible
05 Dec 5.2 22:34:48 10° SSE 22:40:23 65° ENE 22:40:48 62° NE visible
